Weather History for Hailey, ID

Change the Weather History Date:

Saturday, September 28, 2013

  Actual Average Record
Temperature  
Mean Temperature 47 °F -  
Max Temperature 59 °F 67 °F 84 °F (2003)
Min Temperature 35 °F 39 °F 26 °F (1999)
Degree Days  
Heating Degree Days 18    
Moisture  
Dew Point 34 °F    
Average Humidity 73    
Maximum Humidity 93    
Minimum Humidity 36    
Precipitation  
Precipitation 0.00 in - - ()
Sea Level Pressure  
Sea Level Pressure 30.12 in    
Wind  
Wind Speed 4 mph (NW)    
Max Wind Speed 10 mph    
Max Gust Speed 16 mph    
Visibility 10 miles    
Events      
Averages and records for this station are not official NWS values.
T = Trace of Precipitation, MM = Missing Value Source: NWS Daily Summary

Daily Weather History Graph

Daily Weather History Graph

Search for Another Location

Airport:

Trip Planner

Search our weather history database for the weather conditions in past years. The results will help you decide how hot, cold, wet, or windy it might be!

Date:

Astronomy

Sep. 28, 2013 Rise Set
Actual Time 7:31 AM MDT 7:23 PM MDT
Civil Twilight 7:03 AM MDT 7:51 PM MDT
Nautical Twilight 6:29 AM MDT 8:24 PM MDT
Astronomical Twilight 5:55 AM MDT 8:58 PM MDT
Moon 1:13 AM MDT (9/28) 3:53 PM MDT (9/28)
Length of Visible Light 12h 48m
Length of Day
11h 51m
Waning Crescent, 35% of the Moon is Illuminated
Sep 28
Waning Crescent
Oct 4
New
Oct 11
First Quarter
Oct 18
Full
Oct 26
Last Quarter

Hourly Weather History & Observations

Time (MDT) Temp. Windchill Dew Point Humidity Pressure Visibility Wind Dir Wind Speed Gust Speed Precip Events Conditions
12:15 AM 37.4 °F - 32.0 °F 81% 30.13 in 10.0 mi Calm Calm - N/A   Overcast
12:35 AM 39.2 °F 37.0 °F 33.8 °F 81% 30.12 in 10.0 mi WNW 3.5 mph - N/A   Overcast
12:55 AM 39.2 °F 34.2 °F 32.0 °F 75% 30.12 in 10.0 mi NNW 6.9 mph - N/A   Scattered Clouds
1:15 AM 37.4 °F 33.8 °F 32.0 °F 81% 30.13 in 10.0 mi NW 4.6 mph - N/A   Scattered Clouds
1:35 AM 37.4 °F 33.8 °F 32.0 °F 81% 30.13 in 10.0 mi NNW 4.6 mph - N/A   Mostly Cloudy
1:55 AM 37.4 °F 34.9 °F 32.0 °F 81% 30.13 in 10.0 mi NNW 3.5 mph - N/A   Scattered Clouds
2:15 AM 37.4 °F 34.9 °F 32.0 °F 81% 30.13 in 10.0 mi NW 3.5 mph - N/A   Scattered Clouds
2:35 AM 35.6 °F - 33.8 °F 93% 30.14 in 10.0 mi Calm Calm - N/A   Mostly Cloudy
2:55 AM 37.4 °F 34.9 °F 32.0 °F 81% 30.14 in 10.0 mi North 3.5 mph - N/A   Mostly Cloudy
3:15 AM 37.4 °F 33.8 °F 32.0 °F 81% 30.14 in 10.0 mi NW 4.6 mph - N/A   Scattered Clouds
3:35 AM 35.6 °F 29.9 °F 32.0 °F 87% 30.13 in 10.0 mi NNW 6.9 mph - N/A   Scattered Clouds
3:55 AM 37.4 °F 33.8 °F 32.0 °F 81% 30.13 in 10.0 mi NW 4.6 mph - N/A   Overcast
4:15 AM 37.4 °F 32.8 °F 32.0 °F 81% 30.14 in 10.0 mi NNW 5.8 mph - N/A   Overcast
4:35 AM 37.4 °F 32.1 °F 32.0 °F 81% 30.14 in 10.0 mi NW 6.9 mph - N/A   Overcast
4:55 AM 37.4 °F 32.1 °F 32.0 °F 81% 30.14 in 10.0 mi NW 6.9 mph - N/A   Overcast
5:15 AM 37.4 °F 32.8 °F 32.0 °F 81% 30.14 in 10.0 mi NNW 5.8 mph - N/A   Overcast
5:35 AM 37.4 °F 32.8 °F 32.0 °F 81% 30.14 in 10.0 mi NNW 5.8 mph - N/A   Overcast
5:55 AM 37.4 °F 31.4 °F 32.0 °F 81% 30.14 in 10.0 mi NW 8.1 mph - N/A   Overcast
6:15 AM 37.4 °F 31.4 °F 32.0 °F 81% 30.14 in 10.0 mi NNW 8.1 mph - N/A   Overcast
6:35 AM 37.4 °F 30.3 °F 32.0 °F 81% 30.14 in 10.0 mi NW 10.4 mph - N/A   Overcast
6:47 AM 39.2 °F 33.6 °F 33.8 °F 81% 30.15 in 10.0 mi WNW 8.1 mph - N/A   Mostly Cloudy
6:55 AM 37.4 °F 30.8 °F 32.0 °F 81% 30.14 in 10.0 mi NW 9.2 mph - N/A   Overcast
7:47 AM 39.2 °F 35.0 °F 33.8 °F 81% 30.16 in 10.0 mi NW 5.8 mph - N/A   Mostly Cloudy
8:47 AM 39.2 °F 35.0 °F 33.8 °F 81% 30.17 in 10.0 mi WNW 5.8 mph - N/A   Mostly Cloudy
9:48 AM 42.8 °F 39.3 °F 35.6 °F 76% 30.18 in 10.0 mi WNW 5.8 mph - N/A   Mostly Cloudy
10:50 AM 44.6 °F 40.7 °F 35.6 °F 71% 30.18 in 10.0 mi WNW 6.9 mph - N/A   Mostly Cloudy
11:50 AM 51.8 °F - 35.6 °F 54% 30.17 in 10.0 mi SE 3.5 mph - N/A   Mostly Cloudy
12:47 PM 53.6 °F - 37.4 °F 54% 30.16 in 10.0 mi SE 4.6 mph - N/A   Mostly Cloudy
2:47 PM 57.2 °F - 32.0 °F 38% 30.12 in 10.0 mi East 4.6 mph - N/A   Mostly Cloudy
3:55 PM 59.0 °F - 32.0 °F 36% 30.11 in 10.0 mi SW 10.4 mph 16.1 mph N/A   Mostly Cloudy
4:47 PM 57.2 °F - 33.8 °F 41% 30.10 in 10.0 mi SSE 8.1 mph - N/A   Mostly Cloudy
5:50 PM 57.2 °F - 35.6 °F 44% 30.09 in 10.0 mi East 4.6 mph - N/A   Mostly Cloudy
6:50 PM 53.6 °F - 42.8 °F 67% 30.07 in 10.0 mi Calm Calm - N/A   Mostly Cloudy
7:50 PM 53.6 °F - 41.0 °F 62% 30.06 in 10.0 mi Calm Calm - N/A   Mostly Cloudy
8:47 PM 51.8 °F - 39.2 °F 62% 30.06 in 10.0 mi ESE 5.8 mph - N/A   Mostly Cloudy
9:50 PM 50.0 °F - 42.8 °F 76% 30.05 in 10.0 mi Calm Calm - N/A   Mostly Cloudy
10:47 PM 48.2 °F - 39.2 °F 71% 30.06 in 10.0 mi NW 6.9 mph - N/A   Mostly Cloudy
11:15 PM 48.2 °F - 39.2 °F 71% 30.05 in 10.0 mi WNW 5.8 mph - N/A   Overcast
11:35 PM 50.0 °F - 39.2 °F 66% 30.06 in 10.0 mi West 6.9 mph - N/A   Overcast
11:55 PM 50.0 °F - 39.2 °F 66% 30.05 in 10.0 mi West 4.6 mph - N/A   Overcast